This is the latest recevied weather packets stored in our database for station/object N1YZ. If no packets are shown the sender has not sent any weather packets the latest 10 day(s).
| Time | Temp. | Humidity | Pressure | Rain* | Wind** | Luminosity | Snow |
|---|---|---|---|---|---|---|---|
| 1787978960 | 23.89° C | 88% | 1036.8 hPa | 0 mm | - | 0 W/m² | - |
| 1787978659 | 23.33° C | 89% | 1036.7 hPa | 0 mm | - | 0 W/m² | - |
| 1787978355 | 23.33° C | 88% | 1037 hPa | 0 mm | - | 0 W/m² | - |
| 1787978054 | 23.89° C | 88% | 1036.8 hPa | 0 mm | - | 0 W/m² | - |
| 1787977749 | 23.89° C | 87% | 1036.7 hPa | 0 mm | - | 0 W/m² | - |
| 1787977445 | 24.44° C | 86% | 1036.7 hPa | 0 mm | - | 0 W/m² | - |
| 1787977145 | 24.44° C | 85% | 1036.8 hPa | 0 mm | - | 0 W/m² | - |
| 1787976841 | 24.44° C | 84% | 1036.4 hPa | 0 mm | - | 0 W/m² | - |
| 1787976540 | 25° C | 83% | 1036.7 hPa | 0 mm | - | 0 W/m² | - |
| 1787976235 | 24.44° C | 83% | 1036.8 hPa | 0 mm | - | 0 W/m² | - |
| 1787975934 | 24.44° C | 83% | 1036.7 hPa | 0 mm | - | 0 W/m² | - |
| 1787975628 | 24.44° C | 83% | 1036.7 hPa | 0 mm | - | 0 W/m² | - |
| 1787975327 | 25° C | 82% | 1036.6 hPa | 0 mm | - | 0 W/m² | - |
| 1787975026 | 25° C | 82% | 1036.5 hPa | 0 mm | - | 0 W/m² | - |
| 1787974714 | 25° C | 81% | 1036.7 hPa | 0 mm | - | 0 W/m² | - |
| 1787974409 | 25° C | 80% | 1036.6 hPa | 0 mm | - | 0 W/m² | - |
| 1787974108 | 25° C | 81% | 1036.6 hPa | 0 mm | - | 0 W/m² | - |
| 1787973803 | 25° C | 82% | 1036.7 hPa | 0 mm | - | 0 W/m² | - |
| 1787973498 | 25° C | 82% | 1036.8 hPa | 0 mm | - | 0 W/m² | - |
| 1787973193 | 25° C | 80% | 1036.6 hPa | 0 mm | - | 0 W/m² | - |
| 1787972892 | 25.56° C | 78% | 1036.6 hPa | 0 mm | - | 0 W/m² | - |
| 1787972588 | 25.56° C | 77% | 1036.7 hPa | 0 mm | - | 0 W/m² | - |
| 1787972286 | 25.56° C | 78% | 1036.8 hPa | 0 mm | - | 0 W/m² | - |
| 1787971986 | 25.56° C | 79% | 1036.6 hPa | 0 mm | - | 0 W/m² | - |
| 1787971682 | 25.56° C | 78% | 1036.5 hPa | 0 mm | - | 0 W/m² | - |
* Rain latest hour (hover to see other rain measurements)
** Current wind speed in m/s (hover to see current wind gust speed)